STARLINK-33625, 63327

Orbit data source: Space-Track

STARLINK-33625, 63327 is a payload satellite owned by SpaceX/Seattle (US) in LEO that was launched on Tue, 18 Mar 2025 UTC via an FALCON 9 launch vehicle from the Air Force Eastern Test Range (AFETR). Payload-class satellites include a variety of spacecraft equipped with specific instruments for various scientific and technological missions. These include communications satellites like Starlink; space stations such as the ISS; scientific satellites like the Hubble; Earth observation satellites from companies like Planet Labs, Umbra, and HawkEye 360; GPS; miniature CubeSats for education and research; and military/defense satellites.

Loading next visibility...
Identifier
63327, 2025-057W
Orbit
LEO
Last TLE update
9 hours ago
Origin
Manufacturer
SpaceX/Seattle
Mission
Operational Commercial Communications
Bus & Motor
STARLINK V2MO, Unknown motor
Mass
575 kg wet, ~530 kg dry
Launch date (UTC)
2025-03-18 (4 months ago)
Launch vehicle
FALCON 9
Launch site
Air Force Eastern Test Range (AFETR)
Object type
Payload
Rocket body
Debris
Shape & HBR
Box + 1 Pan, 29 m
Radar Cross Section
41.120 m², Large (>1 m²)

Expand to show TLE details & history

TLE from 9 hours ago
0 STARLINK-33625
1 63327U 25057W   25187.58335648 -.00035226  00000-0 -12440-2 0  9998
2 63327  42.9996 333.1631 0001053 272.7862 178.9511 15.28425017  5951
Epoch: 2025-07-06T14:00Z
TLE epoch observation values (Epoch: 2025-07-06T14:00:01.999Z)
Latitude
43.13334°
Longitude
-69.27266°
Altitude
484.388 km
Speed
7.629 km/s
True Right ascension
04h 22m 09s
True Declination
42° 57' 18"
Sunlit
Object was in daylight at epoch
Visualization orbit readout
Latitude
-42.82352°
Longitude
115.05721°
Altitude
493.081 km
Speed
7.619 km/s
Apparent Right ascension
19h 35m 50s
Apparent Declination
-51° 04' 45"
Sunlit
Object is in full shadow
Visualization observer readout
Local Sidereal Time
10:39:00
Azimuth
125.027° SE
Elevation
-56.637°
Doppler factor
1
Orbital elements
Apogee altitude
483.188 km
Perigee altitude
481.744 km
Semi-major axis
6,860.603 km
Eccentricity
0.00011
Inclination
42.9996°
RAAN
333.1631°
Arg. of periapsis
272.7862°
True anomaly
Unknown
Mean anomaly
178.9511°
Eccentric anomaly
Unknown
Mean motion
3.81944 °/min
Orbital period
94.25 mins
BSTAR
-0.001244
Loading maneuver chart data...
Loading SW <> Apogee altitude chart data...
Loading historical data...
Loading historical data...
Loading historical data...
Loading historical data...
Loading historical data...
Loading historical data...
Loading historical data...

STARLINK-33625 Visibility forecast

Observer location: undefined°, undefined°

Span
Click to sort rows by Start time (UTC) header in descending order
Start Az.
Max El. time (UTC)
Max El. Az.
Max El.
End time (UTC)
End Az.
5 mins2025-07-07 13:21:50.194Z228.21° WSW2025-07-07 13:23:50.194Z181.068° SSW38.995°2025-07-07 13:26:50.194Z80.25° E
5 mins2025-07-07 15:00:50.194Z279.315° WNW2025-07-07 15:02:50.194Z330.87° NNW39.134°2025-07-07 15:05:50.194Z68.039° E
6 mins2025-07-07 16:39:50.194Z293.664° NW2025-07-07 16:41:50.194Z333.565° NNW39.401°2025-07-07 16:45:50.194Z91.46° ESE
5 mins2025-07-07 18:18:50.194Z273.082° WNW2025-07-07 18:20:50.194Z224.373° SW35.065°2025-07-07 18:23:50.194Z138.371° SSE
|